Location: Unspecified
(55.7500°N, 0.0000°E)
Time: 03:42:53
(UTC+00:00)

CZ-6A DEB - Visible Passes

Search period start: 04 April 2026 00:00
Search period end: 14 April 2026 00:00
Orbit: 794 x 898 km, 88.9° (Epoch: 28 March)

Date Brightness Start Highest point End Pass type
(mag) Time Alt. Az. Time Alt. Az. Time Alt. Az.
4 Apr ? 03:40:21 10° E 03:41:59 11° ENE 03:43:38 10° NE visible
8 Apr ? 04:25:07 10° SE 04:29:43 31° ENE 04:34:18 10° NNE visible
9 Apr ? 04:12:07 10° SE 04:16:29 27° ENE 04:20:52 10° NNE visible
10 Apr ? 03:59:09 10° ESE 04:03:17 24° ENE 04:07:25 10° NNE visible
11 Apr ? 03:46:15 10° ESE 03:50:05 21° ENE 03:53:56 10° NNE visible
12 Apr ? 03:33:24 10° ESE 03:36:54 18° ENE 03:40:24 10° NNE visible
13 Apr ? 03:20:38 10° ESE 03:23:43 16° ENE 03:26:50 10° NNE visible
